IGO1861 VOBL-FIMP

Flight info

Callsign IGO1861
Flight time N/A
Altitude 34000
Route AKTIM8A AKTIM W118 CIA W15 TVM R457 MLE R329 VRMG G454 BOBOD UT454 OKBOG OKBOG1E
Aircraft A21N/M-SDE2E3FGHIRWXY/LB1

Departure

Time 2026-05-08 05:41
Airport Kempegowda International Airport Bengaluru (VOBL)

Arrival

Time N/A
Airport Sir Seewoosagur Ramgoolam International Airport (FIMP)
Time Latitude Longitude Altitude Speed Heading
2026-05-08 05:14 13.20073 77.71819 3009 ft 0 kts 170°
2026-05-08 05:27 13.20074 77.71819 3009 ft 1 kts 170°
2026-05-08 05:27 13.20089 77.71817 3009 ft 2 kts 170°
2026-05-08 05:27 13.20103 77.71814 3009 ft 2 kts 170°
2026-05-08 05:27 13.20118 77.71812 3009 ft 2 kts 170°
2026-05-08 05:28 13.20132 77.71809 3009 ft 2 kts 170°
2026-05-08 05:28 13.20147 77.71808 3009 ft 2 kts 196°
2026-05-08 05:28 13.20160 77.71815 3009 ft 2 kts 219°
2026-05-08 05:28 13.20170 77.71826 3009 ft 2 kts 243°
2026-05-08 05:29 13.20174 77.71840 3009 ft 1 kts 266°
2026-05-08 05:29 13.20174 77.71847 3009 ft 0 kts 272°
2026-05-08 05:29 13.20174 77.71848 3009 ft 0 kts 271°
2026-05-08 05:31 13.20174 77.71843 3009 ft 1 kts 271°
2026-05-08 05:31 13.20175 77.71828 3009 ft 2 kts 277°
2026-05-08 05:31 13.20186 77.71806 3009 ft 4 kts 310°
2026-05-08 05:31 13.20217 77.71788 3009 ft 6 kts 348°
2026-05-08 05:32 13.20265 77.71787 3009 ft 7 kts
2026-05-08 05:32 13.20322 77.71787 3009 ft 8 kts 360°
2026-05-08 05:32 13.20388 77.71786 3009 ft 10 kts 360°
2026-05-08 05:32 13.20463 77.71787 3009 ft 10 kts 355°
2026-05-08 05:33 13.20512 77.71738 3009 ft 10 kts 281°
2026-05-08 05:33 13.20515 77.71661 3009 ft 10 kts 270°
2026-05-08 05:33 13.20514 77.71590 3009 ft 9 kts 269°
2026-05-08 05:33 13.20515 77.71523 3009 ft 8 kts 271°
2026-05-08 05:34 13.20515 77.71463 3009 ft 7 kts 270°
2026-05-08 05:34 13.20515 77.71435 3009 ft 7 kts 271°
2026-05-08 05:34 13.20515 77.71397 3009 ft 7 kts 270°
2026-05-08 05:34 13.20516 77.71345 3009 ft 7 kts 270°
2026-05-08 05:35 13.20516 77.71283 3009 ft 10 kts 270°
2026-05-08 05:35 13.20517 77.71195 3009 ft 13 kts 270°
2026-05-08 05:35 13.20518 77.71083 3009 ft 16 kts 270°
2026-05-08 05:35 13.20518 77.70980 3009 ft 17 kts 270°
2026-05-08 05:36 13.20519 77.70849 3009 ft 18 kts 270°
2026-05-08 05:36 13.20520 77.70712 3009 ft 18 kts 270°
2026-05-08 05:36 13.20520 77.70574 3009 ft 19 kts 270°
2026-05-08 05:36 13.20522 77.70438 3009 ft 19 kts 271°
2026-05-08 05:37 13.20523 77.70300 3009 ft 18 kts 271°
2026-05-08 05:37 13.20523 77.70163 3009 ft 18 kts 271°
2026-05-08 05:37 13.20524 77.70029 3009 ft 18 kts 270°
2026-05-08 05:37 13.20524 77.69895 3009 ft 18 kts 270°
2026-05-08 05:38 13.20525 77.69759 3009 ft 18 kts 271°
2026-05-08 05:38 13.20525 77.69630 3009 ft 16 kts 272°
2026-05-08 05:38 13.20527 77.69513 3009 ft 16 kts 270°
2026-05-08 05:38 13.20527 77.69392 3009 ft 16 kts 270°
2026-05-08 05:39 13.20529 77.69273 3009 ft 12 kts 273°
2026-05-08 05:39 13.20568 77.69205 3009 ft 11 kts 345°
2026-05-08 05:39 13.20649 77.69205 3009 ft 11 kts 16°
2026-05-08 05:39 13.20684 77.69228 3009 ft 11 kts 50°
2026-05-08 05:40 13.20698 77.69302 3009 ft 12 kts 93°
2026-05-08 05:40 13.20697 77.69588 3009 ft 75 kts 89°
2026-05-08 05:40 13.20692 77.70362 3009 ft 138 kts 91°
2026-05-08 05:40 13.20682 77.71569 3021 ft 189 kts 90°
2026-05-08 05:41 13.20685 77.72997 3493 ft 199 kts 89°
2026-05-08 05:41 13.20946 77.74438 4136 ft 208 kts 65°
2026-05-08 05:41 13.21656 77.75847 4650 ft 225 kts 70°
2026-05-08 05:41 13.21734 77.77509 4908 ft 244 kts 109°
2026-05-08 05:42 13.20712 77.78967 5226 ft 261 kts 145°
2026-05-08 05:42 13.18917 77.79578 5576 ft 280 kts 180°
2026-05-08 05:42 13.16998 77.79045 6183 ft 286 kts 206°
2026-05-08 05:42 13.15198 77.78120 6901 ft 288 kts 204°
2026-05-08 05:43 13.13995 77.77579 7320 ft 291 kts 201°
2026-05-08 05:43 13.12771 77.77112 7737 ft 293 kts 198°
2026-05-08 05:43 13.10769 77.76493 8404 ft 296 kts 194°
2026-05-08 05:43 13.08732 77.75984 9056 ft 299 kts 192°
2026-05-08 05:44 13.06654 77.75536 9698 ft 302 kts 191°
2026-05-08 05:44 13.04548 77.75124 10324 ft 306 kts 190°
2026-05-08 05:44 13.02399 77.74727 10669 ft 320 kts 189°
2026-05-08 05:44 13.00145 77.74323 10947 ft 336 kts 189°
2026-05-08 05:45 12.97720 77.73898 11228 ft 351 kts 189°
2026-05-08 05:45 12.95223 77.73463 11659 ft 361 kts 189°
2026-05-08 05:45 12.92664 77.73022 12292 ft 364 kts 189°
2026-05-08 05:45 12.90115 77.72585 12919 ft 367 kts 189°
2026-05-08 05:46 12.87491 77.72136 13526 ft 370 kts 189°
2026-05-08 05:46 12.84882 77.71690 14117 ft 374 kts 189°
2026-05-08 05:46 12.82248 77.71240 14703 ft 377 kts 189°
2026-05-08 05:46 12.79611 77.70789 15277 ft 380 kts 189°
2026-05-08 05:47 12.76943 77.70332 15846 ft 383 kts 189°
2026-05-08 05:47 12.74272 77.69876 16403 ft 386 kts 189°
2026-05-08 05:47 12.71543 77.69410 16962 ft 390 kts 188°
2026-05-08 05:47 12.68811 77.68943 17511 ft 393 kts 188°
2026-05-08 05:48 12.66040 77.68470 18057 ft 396 kts 188°
2026-05-08 05:48 12.63276 77.67998 18588 ft 399 kts 188°
2026-05-08 05:48 12.60511 77.67526 19110 ft 402 kts 188°
2026-05-08 05:48 12.57710 77.67048 19626 ft 405 kts 188°
2026-05-08 05:49 12.54931 77.66574 20106 ft 409 kts 188°
2026-05-08 05:49 12.52088 77.66089 20593 ft 412 kts 188°
2026-05-08 05:49 12.49228 77.65601 21090 ft 415 kts 188°
2026-05-08 05:49 12.46338 77.65108 21584 ft 418 kts 188°
2026-05-08 05:50 12.43455 77.64616 22069 ft 421 kts 188°
2026-05-08 05:50 12.40546 77.64121 22550 ft 423 kts 188°
2026-05-08 05:50 12.37625 77.63623 23020 ft 426 kts 188°
2026-05-08 05:50 12.34644 77.63116 23482 ft 429 kts 188°
2026-05-08 05:51 12.31642 77.62605 23929 ft 431 kts 188°
2026-05-08 05:51 12.28657 77.62096 24357 ft 434 kts 188°
2026-05-08 05:51 12.25686 77.61591 24772 ft 436 kts 188°
2026-05-08 05:51 12.22655 77.61075 25179 ft 439 kts 188°
2026-05-08 05:52 12.19595 77.60555 25570 ft 441 kts 187°
2026-05-08 05:52 12.16507 77.60030 25950 ft 443 kts 187°
2026-05-08 05:52 12.13454 77.59512 26316 ft 446 kts 187°
2026-05-08 05:52 12.10321 77.58979 26675 ft 448 kts 187°
2026-05-08 05:53 12.07211 77.58451 27018 ft 450 kts 187°
2026-05-08 05:53 12.04081 77.57903 27354 ft 452 kts 188°
2026-05-08 05:53 12.00958 77.57328 27677 ft 454 kts 188°
2026-05-08 05:53 11.97821 77.56742 27994 ft 456 kts 188°
2026-05-08 05:54 11.94681 77.56155 28305 ft 458 kts 188°
2026-05-08 05:54 11.91504 77.55563 28607 ft 460 kts 188°
2026-05-08 05:54 11.88324 77.54971 28895 ft 462 kts 188°
2026-05-08 05:54 11.85210 77.54391 29171 ft 464 kts 188°
2026-05-08 05:55 11.81979 77.53792 29454 ft 465 kts 188°
2026-05-08 05:55 11.78781 77.53199 29728 ft 466 kts 188°
2026-05-08 05:55 11.75611 77.52611 30082 ft 466 kts 188°
2026-05-08 05:55 11.72380 77.52011 30479 ft 464 kts 188°
2026-05-08 05:56 11.69144 77.51411 30856 ft 462 kts 188°
2026-05-08 05:56 11.65954 77.50819 31205 ft 461 kts 188°
2026-05-08 05:56 11.62779 77.50232 31534 ft 460 kts 188°
2026-05-08 05:56 11.59614 77.49647 31851 ft 459 kts 188°
2026-05-08 05:57 11.56472 77.49065 32151 ft 458 kts 187°
2026-05-08 05:57 11.53277 77.48474 32408 ft 459 kts 187°
2026-05-08 05:57 11.50121 77.47891 32627 ft 460 kts 187°
2026-05-08 05:57 11.46945 77.47304 32844 ft 460 kts 187°
2026-05-08 05:58 11.43789 77.46721 33060 ft 461 kts 187°
2026-05-08 05:58 11.40561 77.46124 33275 ft 461 kts 187°
2026-05-08 05:58 11.37360 77.45532 33482 ft 462 kts 187°
2026-05-08 05:58 11.34195 77.44948 33678 ft 462 kts 187°
2026-05-08 05:59 11.30933 77.44345 33869 ft 463 kts 187°
2026-05-08 05:59 11.24494 77.43156 33917 ft 464 kts 187°
2026-05-08 06:00 11.18044 77.41965 33922 ft 464 kts 187°
2026-05-08 06:00 11.11603 77.40776 33925 ft 464 kts 187°
2026-05-08 06:01 11.05179 77.39591 33925 ft 464 kts 187°
2026-05-08 06:01 10.98719 77.38397 33925 ft 464 kts 187°
2026-05-08 06:02 10.92352 77.37221 33925 ft 465 kts 187°
2026-05-08 06:02 10.85836 77.36021 33925 ft 465 kts 186°
2026-05-08 06:03 10.79269 77.34815 33923 ft 466 kts 186°
2026-05-08 06:03 10.72776 77.33621 33925 ft 466 kts 186°
2026-05-08 06:04 10.66327 77.32435 33925 ft 465 kts 186°
2026-05-08 06:04 10.59891 77.31252 33925 ft 466 kts 186°
2026-05-08 06:05 10.53397 77.30057 33925 ft 466 kts 186°
2026-05-08 06:05 10.46977 77.28878 33925 ft 466 kts 186°
2026-05-08 06:06 10.40496 77.27688 33925 ft 466 kts 186°
2026-05-08 06:06 10.34107 77.26514 33925 ft 466 kts 186°
2026-05-08 06:07 10.27626 77.25325 33924 ft 465 kts 186°
2026-05-08 06:07 10.21143 77.24136 33920 ft 466 kts 186°
2026-05-08 06:08 10.14670 77.22948 33911 ft 466 kts 186°
2026-05-08 06:08 10.08216 77.21766 33895 ft 465 kts 186°
2026-05-08 06:09 10.01769 77.20585 33879 ft 466 kts 186°
2026-05-08 06:09 9.95279 77.19397 33870 ft 466 kts 186°
2026-05-08 06:10 9.88827 77.18215 33864 ft 466 kts 186°
2026-05-08 06:10 9.82379 77.17034 33861 ft 466 kts 186°
2026-05-08 06:11 9.75893 77.15848 33860 ft 466 kts 186°
2026-05-08 06:11 9.69388 77.14658 33858 ft 466 kts 186°
2026-05-08 06:12 9.62912 77.13474 33857 ft 466 kts 186°
2026-05-08 06:12 9.56481 77.12300 33855 ft 467 kts 186°
2026-05-08 06:13 9.50023 77.11119 33854 ft 466 kts 186°
2026-05-08 06:13 9.43543 77.09937 33853 ft 466 kts 186°
2026-05-08 06:14 9.37025 77.08747 33849 ft 466 kts 186°
2026-05-08 06:14 9.30555 77.07568 33841 ft 466 kts 186°
2026-05-08 06:15 9.24048 77.06381 33830 ft 466 kts 186°
2026-05-08 06:15 9.17565 77.05199 33822 ft 467 kts 186°
2026-05-08 06:16 9.11075 77.04016 33819 ft 466 kts 186°
2026-05-08 06:16 9.04645 77.02844 33819 ft 463 kts 186°
2026-05-08 06:17 8.94849 77.01060 33819 ft 457 kts 186°
2026-05-08 06:17 8.88382 76.99882 33817 ft 456 kts 186°
2026-05-08 06:18 8.82025 76.98727 33817 ft 456 kts 186°
2026-05-08 06:18 8.75700 76.97572 33831 ft 456 kts 187°
2026-05-08 06:19 8.69401 76.96425 33822 ft 456 kts 186°
2026-05-08 06:19 8.63082 76.95280 33818 ft 456 kts 186°
2026-05-08 06:20 8.56754 76.94119 33816 ft 456 kts 187°
2026-05-08 06:20 8.50538 76.92349 33817 ft 461 kts 197°
2026-05-08 06:21 8.44681 76.89619 33817 ft 466 kts 206°
2026-05-08 06:21 8.39186 76.85883 33819 ft 470 kts 214°
2026-05-08 06:22 8.34002 76.81723 33818 ft 469 kts 215°
2026-05-08 06:22 8.28847 76.77568 33817 ft 469 kts 215°
2026-05-08 06:23 8.23656 76.73405 33817 ft 469 kts 214°
2026-05-08 06:23 8.18475 76.69261 33817 ft 469 kts 214°
2026-05-08 06:24 8.13302 76.65125 33817 ft 469 kts 214°
2026-05-08 06:24 8.08131 76.60995 33817 ft 469 kts 214°
2026-05-08 06:25 8.02907 76.56824 33817 ft 469 kts 214°
2026-05-08 06:25 7.97725 76.52686 33817 ft 469 kts 214°
2026-05-08 06:26 7.92539 76.48548 33817 ft 469 kts 214°
2026-05-08 06:26 7.87445 76.44484 33817 ft 469 kts 214°
2026-05-08 06:27 7.82106 76.40227 33817 ft 469 kts 214°
2026-05-08 06:27 7.76808 76.36004 33817 ft 469 kts 215°
2026-05-08 06:28 7.71568 76.31827 33816 ft 469 kts 214°
2026-05-08 06:28 7.66368 76.27684 33817 ft 469 kts 214°
2026-05-08 06:29 7.61179 76.23552 33817 ft 469 kts 214°
2026-05-08 06:29 7.56009 76.19435 33817 ft 469 kts 214°
2026-05-08 06:30 7.50830 76.15314 33817 ft 469 kts 214°
2026-05-08 06:30 7.45653 76.11194 33817 ft 469 kts 214°
2026-05-08 06:31 7.40452 76.07056 33817 ft 469 kts 214°
2026-05-08 06:31 7.35227 76.02901 33817 ft 469 kts 214°
2026-05-08 06:32 7.30071 75.98801 33817 ft 469 kts 214°
2026-05-08 06:32 7.24855 75.94657 33817 ft 469 kts 214°
2026-05-08 06:33 7.19701 75.90562 33817 ft 469 kts 214°
2026-05-08 06:33 7.14522 75.86449 33817 ft 469 kts 214°
2026-05-08 06:34 7.09312 75.82311 33817 ft 469 kts 214°
2026-05-08 06:34 7.04148 75.78213 33817 ft 469 kts 214°
2026-05-08 06:35 6.98928 75.74072 33817 ft 469 kts 215°
2026-05-08 06:35 6.93741 75.69958 33817 ft 469 kts 215°
2026-05-08 06:36 6.88546 75.65840 33817 ft 470 kts 215°
2026-05-08 06:36 6.83352 75.61722 33817 ft 470 kts 215°
2026-05-08 06:37 6.78191 75.57629 33817 ft 470 kts 215°
2026-05-08 06:37 6.72987 75.53506 33818 ft 470 kts 215°
2026-05-08 06:38 6.67778 75.49378 33822 ft 470 kts 215°
2026-05-08 06:38 6.62590 75.45266 33825 ft 469 kts 215°
2026-05-08 06:39 6.57369 75.41132 33830 ft 470 kts 215°
2026-05-08 06:39 6.52198 75.37038 33835 ft 470 kts 215°
2026-05-08 06:40 6.47000 75.32925 33838 ft 470 kts 215°
2026-05-08 06:40 6.41834 75.28839 33841 ft 470 kts 215°
2026-05-08 06:41 6.36621 75.24717 33842 ft 470 kts 215°
2026-05-08 06:41 6.31412 75.20599 33842 ft 470 kts 215°
2026-05-08 06:42 6.26228 75.16500 33842 ft 470 kts 215°
2026-05-08 06:42 6.21027 75.12391 33842 ft 470 kts 215°
2026-05-08 06:43 6.15823 75.08279 33842 ft 469 kts 215°
2026-05-08 06:43 6.10628 75.04178 33842 ft 469 kts 215°
2026-05-08 06:44 6.05423 75.00067 33842 ft 469 kts 215°
2026-05-08 06:44 6.00223 74.95962 33842 ft 469 kts 215°
2026-05-08 06:45 5.95032 74.91840 33842 ft 469 kts 216°
2026-05-08 06:45 5.89702 74.87597 33842 ft 469 kts 216°
2026-05-08 06:46 5.84542 74.83492 33842 ft 469 kts 216°
2026-05-08 06:46 5.79306 74.79329 33842 ft 469 kts 216°
2026-05-08 06:47 5.74002 74.75114 33842 ft 469 kts 216°
2026-05-08 06:47 5.68800 74.70979 33842 ft 469 kts 216°
2026-05-08 06:48 5.63605 74.66851 33842 ft 469 kts 216°
2026-05-08 06:48 5.58366 74.62688 33842 ft 469 kts 216°
2026-05-08 06:49 5.53163 74.58557 33842 ft 469 kts 216°
2026-05-08 06:49 5.47972 74.54435 33842 ft 469 kts 216°
2026-05-08 06:50 5.42756 74.50295 33842 ft 469 kts 216°
2026-05-08 06:50 5.37541 74.46159 33842 ft 469 kts 216°
2026-05-08 06:51 5.32307 74.42009 33842 ft 469 kts 216°
2026-05-08 06:51 5.27038 74.37832 33842 ft 469 kts 216°
2026-05-08 06:52 5.21755 74.33643 33841 ft 468 kts 216°
2026-05-08 06:52 5.16447 74.29437 33842 ft 469 kts 216°
2026-05-08 06:53 5.11178 74.25262 33842 ft 469 kts 216°
2026-05-08 06:53 5.05908 74.21088 33841 ft 470 kts 216°
2026-05-08 06:54 5.00576 74.16866 33840 ft 473 kts 216°
2026-05-08 06:54 4.95247 74.12646 33841 ft 476 kts 216°
2026-05-08 06:55 4.89889 74.08403 33842 ft 476 kts 216°
2026-05-08 06:55 4.84507 74.04139 33842 ft 476 kts 216°
2026-05-08 06:56 4.79182 73.99855 33842 ft 476 kts 216°
2026-05-08 06:56 4.73882 73.95581 33842 ft 476 kts 216°
2026-05-08 06:57 4.68533 73.91273 33842 ft 476 kts 216°
2026-05-08 06:57 4.63194 73.86977 33842 ft 476 kts 216°
2026-05-08 06:58 4.57864 73.82688 33842 ft 476 kts 216°
2026-05-08 06:58 4.52533 73.78400 33842 ft 476 kts 216°
2026-05-08 06:59 4.47190 73.74103 33842 ft 476 kts 216°
2026-05-08 06:59 4.41904 73.69852 33842 ft 476 kts 216°
2026-05-08 07:00 4.36547 73.65546 33842 ft 476 kts 216°
2026-05-08 07:00 4.31222 73.61265 33842 ft 476 kts 216°
2026-05-08 07:01 4.25779 73.57166 33840 ft 474 kts 209°
2026-05-08 07:01 4.19697 73.54273 33835 ft 468 kts 195°
2026-05-08 07:02 4.13213 73.52864 33825 ft 461 kts 182°
2026-05-08 07:02 4.06600 73.52720 33820 ft 458 kts 175°
2026-05-08 07:03 4.00034 73.52758 33818 ft 459 kts 176°
2026-05-08 07:03 3.93480 73.52761 33817 ft 459 kts 176°
2026-05-08 07:04 3.86889 73.52760 33817 ft 459 kts 176°
2026-05-08 07:04 3.80287 73.52758 33817 ft 458 kts 176°
2026-05-08 07:05 3.73689 73.52756 33817 ft 458 kts 176°
2026-05-08 07:05 3.67116 73.52753 33817 ft 459 kts 176°
2026-05-08 07:06 3.60547 73.52750 33817 ft 458 kts 176°
2026-05-08 07:06 3.53952 73.52746 33817 ft 459 kts 176°
2026-05-08 07:07 3.47342 73.52741 33817 ft 459 kts 176°
2026-05-08 07:07 3.40772 73.52737 33817 ft 459 kts 176°
2026-05-08 07:08 3.34206 73.52593 33817 ft 461 kts 180°
2026-05-08 07:08 3.27575 73.52005 33817 ft 461 kts 182°
2026-05-08 07:09 3.21006 73.51389 33817 ft 461 kts 182°
2026-05-08 07:09 3.14379 73.50770 33817 ft 461 kts 182°
2026-05-08 07:10 3.07835 73.50160 33817 ft 461 kts 181°
2026-05-08 07:10 3.01211 73.49546 33817 ft 461 kts 182°
2026-05-08 07:11 2.94621 73.48938 33817 ft 462 kts 182°